Year,Month,Day,Hour,Minute,Value (Times are PST for temperature in C)
2002,06,09,00,00,13.00
2002,06,09,00,01,13.00
2002,06,09,00,02,12.90
2002,06,09,00,03,12.90
2002,06,09,00,04,12.90
2002,06,09,00,05,13.00
2002,06,09,00,06,13.00
2002,06,09,00,07,13.00
2002,06,09,00,08,13.00
2002,06,09,00,09,13.00
2002,06,09,00,10,13.00
2002,06,09,00,11,13.00
2002,06,09,00,12,13.10
2002,06,09,00,13,13.20
2002,06,09,00,14,13.30
2002,06,09,00,15,13.30
2002,06,09,00,16,13.40
2002,06,09,00,17,13.40
2002,06,09,00,18,13.50
2002,06,09,00,19,13.50
2002,06,09,00,20,13.60
2002,06,09,00,21,13.60
2002,06,09,00,22,13.70
2002,06,09,00,23,13.70
2002,06,09,00,24,13.70
2002,06,09,00,25,13.70
2002,06,09,00,26,13.60
2002,06,09,00,27,13.60
2002,06,09,00,28,13.50
2002,06,09,00,29,13.40
2002,06,09,00,30,13.30
2002,06,09,00,31,13.30
2002,06,09,00,32,13.20
2002,06,09,00,33,13.20
2002,06,09,00,34,13.10
2002,06,09,00,35,13.10
2002,06,09,00,36,13.10
2002,06,09,00,37,13.00
2002,06,09,00,38,13.00
2002,06,09,00,39,13.00
2002,06,09,00,40,13.00
2002,06,09,00,41,13.00
2002,06,09,00,42,13.00
2002,06,09,00,43,13.00
2002,06,09,00,44,13.00
2002,06,09,00,45,13.00
2002,06,09,00,46,13.10
2002,06,09,00,47,13.10
2002,06,09,00,48,13.20
2002,06,09,00,49,13.30
2002,06,09,00,50,13.30
2002,06,09,00,51,13.30
2002,06,09,00,52,13.30
2002,06,09,00,53,13.30
2002,06,09,00,54,13.40
2002,06,09,00,55,13.40
2002,06,09,00,56,13.40
2002,06,09,00,57,13.40
2002,06,09,00,58,13.30
2002,06,09,00,59,13.30
2002,06,09,01,00,13.30
2002,06,09,01,01,13.30
2002,06,09,01,02,13.30
2002,06,09,01,03,13.30
2002,06,09,01,04,13.30
2002,06,09,01,05,13.30
2002,06,09,01,06,13.30
2002,06,09,01,07,13.30
2002,06,09,01,08,13.30
2002,06,09,01,09,13.30
2002,06,09,01,10,13.30
2002,06,09,01,11,13.30
2002,06,09,01,12,13.30
2002,06,09,01,13,13.40
2002,06,09,01,14,13.40
2002,06,09,01,15,13.40
2002,06,09,01,16,13.40
2002,06,09,01,17,13.40
2002,06,09,01,18,13.40
2002,06,09,01,19,13.40
2002,06,09,01,20,13.40
2002,06,09,01,21,13.40
2002,06,09,01,22,13.40
2002,06,09,01,23,13.50
2002,06,09,01,24,13.50
2002,06,09,01,25,13.50
2002,06,09,01,26,13.50
2002,06,09,01,27,13.50
2002,06,09,01,28,13.50
2002,06,09,01,29,13.50
2002,06,09,01,30,13.60
2002,06,09,01,31,13.60
2002,06,09,01,32,13.60
2002,06,09,01,33,13.60
2002,06,09,01,34,13.70
2002,06,09,01,35,13.70
2002,06,09,01,36,13.70
2002,06,09,01,37,13.70
2002,06,09,01,38,13.70
2002,06,09,01,39,13.70
2002,06,09,01,40,13.70
2002,06,09,01,41,13.70
2002,06,09,01,42,13.70
2002,06,09,01,43,13.70
2002,06,09,01,44,13.70
2002,06,09,01,45,13.70
2002,06,09,01,46,13.70
2002,06,09,01,47,13.70
2002,06,09,01,48,13.70
2002,06,09,01,49,13.60
2002,06,09,01,50,13.50
2002,06,09,01,51,13.40
2002,06,09,01,52,13.40
2002,06,09,01,53,13.30
2002,06,09,01,54,13.30
2002,06,09,01,55,13.30
2002,06,09,01,56,13.20
2002,06,09,01,57,13.10
2002,06,09,01,58,13.10
2002,06,09,01,59,13.00
2002,06,09,02,00,13.00
2002,06,09,02,01,12.90
2002,06,09,02,02,12.80
2002,06,09,02,03,12.80
2002,06,09,02,04,12.80
2002,06,09,02,05,12.70
2002,06,09,02,06,12.70
2002,06,09,02,07,12.70
2002,06,09,02,08,12.70
2002,06,09,02,09,12.70
2002,06,09,02,10,12.70
2002,06,09,02,11,12.70
2002,06,09,02,12,12.70
2002,06,09,02,13,12.70
2002,06,09,02,14,12.70
2002,06,09,02,15,12.70
2002,06,09,02,16,12.80
2002,06,09,02,17,12.80
2002,06,09,02,18,12.80
2002,06,09,02,19,12.80
2002,06,09,02,20,12.80
2002,06,09,02,21,12.80
2002,06,09,02,22,12.80
2002,06,09,02,23,12.80
2002,06,09,02,24,12.80
2002,06,09,02,25,12.80
2002,06,09,02,26,12.80
2002,06,09,02,27,12.80
2002,06,09,02,28,12.80
2002,06,09,02,29,12.80
2002,06,09,02,30,12.80
2002,06,09,02,31,12.80
2002,06,09,02,32,12.90
2002,06,09,02,33,12.90
2002,06,09,02,34,13.00
2002,06,09,02,35,13.10
2002,06,09,02,36,13.10
2002,06,09,02,37,13.20
2002,06,09,02,38,13.30
2002,06,09,02,39,13.30
2002,06,09,02,40,13.40
2002,06,09,02,41,13.50
2002,06,09,02,42,13.50
2002,06,09,02,43,13.50
2002,06,09,02,44,13.50
2002,06,09,02,45,13.50
2002,06,09,02,46,13.40
2002,06,09,02,47,13.30
2002,06,09,02,48,13.20
2002,06,09,02,49,13.10
2002,06,09,02,50,13.00
2002,06,09,02,51,13.00
2002,06,09,02,52,12.90
2002,06,09,02,53,12.90
2002,06,09,02,54,12.80
2002,06,09,02,55,12.80
2002,06,09,02,56,12.80
2002,06,09,02,57,12.80
2002,06,09,02,58,12.80
2002,06,09,02,59,12.80
2002,06,09,03,00,12.80
2002,06,09,03,01,12.80
2002,06,09,03,02,12.80
2002,06,09,03,03,12.80
2002,06,09,03,04,12.80
2002,06,09,03,05,12.80
2002,06,09,03,06,12.80
2002,06,09,03,07,12.80
2002,06,09,03,08,12.80
2002,06,09,03,09,12.80
2002,06,09,03,10,12.80
2002,06,09,03,11,12.80
2002,06,09,03,12,12.80
2002,06,09,03,13,12.80
2002,06,09,03,14,12.80
2002,06,09,03,15,12.80
2002,06,09,03,16,12.80
2002,06,09,03,17,12.80
2002,06,09,03,18,12.80
2002,06,09,03,19,12.80
2002,06,09,03,20,12.80
2002,06,09,03,21,12.80
2002,06,09,03,22,12.80
2002,06,09,03,23,12.80
2002,06,09,03,24,12.80
2002,06,09,03,25,12.80
2002,06,09,03,26,12.80
2002,06,09,03,27,12.70
2002,06,09,03,28,12.70
2002,06,09,03,29,12.70
2002,06,09,03,30,12.60
2002,06,09,03,31,12.60
2002,06,09,03,32,12.60
2002,06,09,03,33,12.60
2002,06,09,03,34,12.60
2002,06,09,03,35,12.50
2002,06,09,03,36,12.50
2002,06,09,03,37,12.50
2002,06,09,03,38,12.50
2002,06,09,03,39,12.50
2002,06,09,03,40,12.50
2002,06,09,03,41,12.50
2002,06,09,03,42,12.50
2002,06,09,03,43,12.50
2002,06,09,03,44,12.50
2002,06,09,03,45,12.50
2002,06,09,03,46,12.50
2002,06,09,03,47,12.50
2002,06,09,03,48,12.50
2002,06,09,03,49,12.60
2002,06,09,03,50,12.60
2002,06,09,03,51,12.60
2002,06,09,03,52,12.60
2002,06,09,03,53,12.60
2002,06,09,03,54,12.60
2002,06,09,03,55,12.60
2002,06,09,03,56,12.60
2002,06,09,03,57,12.60
2002,06,09,03,58,12.60
2002,06,09,03,59,12.60
2002,06,09,04,00,12.60
2002,06,09,04,01,12.60
2002,06,09,04,02,12.50
2002,06,09,04,03,12.50
2002,06,09,04,04,12.50
2002,06,09,04,05,12.50
2002,06,09,04,06,12.40
2002,06,09,04,07,12.40
2002,06,09,04,08,12.40
2002,06,09,04,09,12.40
2002,06,09,04,10,12.40
2002,06,09,04,11,12.40
2002,06,09,04,12,12.40
2002,06,09,04,13,12.30
2002,06,09,04,14,12.30
2002,06,09,04,15,12.30
2002,06,09,04,16,12.40
2002,06,09,04,17,12.40
2002,06,09,04,18,12.40
2002,06,09,04,19,12.40
2002,06,09,04,20,12.50
2002,06,09,04,21,12.50
2002,06,09,04,22,12.50
2002,06,09,04,23,12.60
2002,06,09,04,24,12.60
2002,06,09,04,25,12.60
2002,06,09,04,26,12.60
2002,06,09,04,27,12.60
2002,06,09,04,28,12.60
2002,06,09,04,29,12.60
2002,06,09,04,30,12.60
2002,06,09,04,31,12.70
2002,06,09,04,32,12.70
2002,06,09,04,33,12.70
2002,06,09,04,34,12.70
2002,06,09,04,35,12.70
2002,06,09,04,36,12.60
2002,06,09,04,37,12.60
2002,06,09,04,38,12.60
2002,06,09,04,39,12.70
2002,06,09,04,40,12.70
2002,06,09,04,41,12.60
2002,06,09,04,42,12.60
2002,06,09,04,43,12.50
2002,06,09,04,44,12.50
2002,06,09,04,45,12.40
2002,06,09,04,46,12.30
2002,06,09,04,47,12.20
2002,06,09,04,48,12.10
2002,06,09,04,49,12.10
2002,06,09,04,50,12.00
2002,06,09,04,51,12.00
2002,06,09,04,52,12.10
2002,06,09,04,53,12.20
2002,06,09,04,54,12.40
2002,06,09,04,55,12.60
2002,06,09,04,56,12.80
2002,06,09,04,57,13.00
2002,06,09,04,58,13.10
2002,06,09,04,59,13.30
2002,06,09,05,00,13.30
2002,06,09,05,01,13.30
2002,06,09,05,02,13.40
2002,06,09,05,03,13.40
2002,06,09,05,04,13.40
2002,06,09,05,05,13.40
2002,06,09,05,06,13.40
2002,06,09,05,07,13.40
2002,06,09,05,08,13.40
2002,06,09,05,09,13.40
2002,06,09,05,10,13.40
2002,06,09,05,11,13.40
2002,06,09,05,12,13.20
2002,06,09,05,13,13.00
2002,06,09,05,14,12.90
2002,06,09,05,15,12.80
2002,06,09,05,16,12.70
2002,06,09,05,17,12.60
2002,06,09,05,18,12.50
2002,06,09,05,19,12.40
2002,06,09,05,20,12.30
2002,06,09,05,21,12.10
2002,06,09,05,22,11.90
2002,06,09,05,23,11.80
2002,06,09,05,24,11.70
2002,06,09,05,25,11.70
2002,06,09,05,26,11.60
2002,06,09,05,27,11.60
2002,06,09,05,28,11.60
2002,06,09,05,29,11.60
2002,06,09,05,30,11.60
2002,06,09,05,31,11.60
2002,06,09,05,32,11.60
2002,06,09,05,33,11.60
2002,06,09,05,34,11.60
2002,06,09,05,35,11.60
2002,06,09,05,36,11.60
2002,06,09,05,37,11.60
2002,06,09,05,38,11.60
2002,06,09,05,39,11.60
2002,06,09,05,40,11.60
2002,06,09,05,41,11.60
2002,06,09,05,42,11.60
2002,06,09,05,43,11.70
2002,06,09,05,44,11.70
2002,06,09,05,45,11.80
2002,06,09,05,46,11.80
2002,06,09,05,47,11.80
2002,06,09,05,48,11.80
2002,06,09,05,49,11.80
2002,06,09,05,50,11.80
2002,06,09,05,51,11.90
2002,06,09,05,52,12.00
2002,06,09,05,53,12.10
2002,06,09,05,54,12.10
2002,06,09,05,55,12.20
2002,06,09,05,56,12.20
2002,06,09,05,57,12.30
2002,06,09,05,58,12.30
2002,06,09,05,59,12.20
2002,06,09,06,00,12.20
2002,06,09,06,01,12.10
2002,06,09,06,02,12.10
2002,06,09,06,03,12.10
2002,06,09,06,04,12.00
2002,06,09,06,05,12.00
2002,06,09,06,06,12.00
2002,06,09,06,07,12.00
2002,06,09,06,08,12.00
2002,06,09,06,09,12.00
2002,06,09,06,10,12.00
2002,06,09,06,11,12.10
2002,06,09,06,12,12.20
2002,06,09,06,13,12.20
2002,06,09,06,14,12.30
2002,06,09,06,15,12.40
2002,06,09,06,16,12.40
2002,06,09,06,17,12.50
2002,06,09,06,18,12.50
2002,06,09,06,19,12.50
2002,06,09,06,20,12.50
2002,06,09,06,21,12.60
2002,06,09,06,22,12.60
2002,06,09,06,23,12.60
2002,06,09,06,24,12.70
2002,06,09,06,25,12.70
2002,06,09,06,26,12.70
2002,06,09,06,27,12.70
2002,06,09,06,28,12.80
2002,06,09,06,29,12.80
2002,06,09,06,30,12.90
2002,06,09,06,31,13.00
2002,06,09,06,32,13.10
2002,06,09,06,33,13.10
2002,06,09,06,34,13.30
2002,06,09,06,35,13.30
2002,06,09,06,36,13.40
2002,06,09,06,37,13.50
2002,06,09,06,38,13.60
2002,06,09,06,39,13.70
2002,06,09,06,40,13.80
2002,06,09,06,41,13.90
2002,06,09,06,42,14.00
2002,06,09,06,43,14.20
2002,06,09,06,44,14.20
2002,06,09,06,45,14.20
2002,06,09,06,46,14.30
2002,06,09,06,47,14.40
2002,06,09,06,48,14.50
2002,06,09,06,49,14.60
2002,06,09,06,50,14.60
2002,06,09,06,51,14.70
2002,06,09,06,52,14.70
2002,06,09,06,53,14.80
2002,06,09,06,54,14.90
2002,06,09,06,55,15.00
2002,06,09,06,56,15.00
2002,06,09,06,57,15.00
2002,06,09,06,58,15.00
2002,06,09,06,59,14.90
2002,06,09,07,00,14.70
2002,06,09,07,01,14.70
2002,06,09,07,02,14.50
2002,06,09,07,03,14.50
2002,06,09,07,04,14.40
2002,06,09,07,05,14.40
2002,06,09,07,06,14.30
2002,06,09,07,07,14.20
2002,06,09,07,08,14.20
2002,06,09,07,09,14.30
2002,06,09,07,10,14.30
2002,06,09,07,11,14.40
2002,06,09,07,12,14.50
2002,06,09,07,13,14.70
2002,06,09,07,14,14.80
2002,06,09,07,15,14.80
2002,06,09,07,16,14.80
2002,06,09,07,17,14.90
2002,06,09,07,18,14.90
2002,06,09,07,19,15.00
2002,06,09,07,20,15.10
2002,06,09,07,21,15.20
2002,06,09,07,22,15.20
2002,06,09,07,23,15.10
2002,06,09,07,24,15.00
2002,06,09,07,25,15.00
2002,06,09,07,26,15.00
2002,06,09,07,27,15.00
2002,06,09,07,28,15.10
2002,06,09,07,29,15.10
2002,06,09,07,30,15.10
2002,06,09,07,31,15.20
2002,06,09,07,32,15.10
2002,06,09,07,33,15.10
2002,06,09,07,34,15.10
2002,06,09,07,35,15.20
2002,06,09,07,36,15.30
2002,06,09,07,37,15.30
2002,06,09,07,38,15.40
2002,06,09,07,39,15.50
2002,06,09,07,40,15.50
2002,06,09,07,41,15.60
2002,06,09,07,42,15.70
2002,06,09,07,43,15.80
2002,06,09,07,44,15.90
2002,06,09,07,45,16.00
2002,06,09,07,46,16.10
2002,06,09,07,47,16.10
2002,06,09,07,48,16.20
2002,06,09,07,49,16.30
2002,06,09,07,50,16.30
2002,06,09,07,51,16.40
2002,06,09,07,52,16.40
2002,06,09,07,53,16.40
2002,06,09,07,54,16.60
2002,06,09,07,55,16.60
2002,06,09,07,56,16.70
2002,06,09,07,57,16.80
2002,06,09,07,58,17.00
2002,06,09,07,59,17.00
2002,06,09,08,00,17.20
2002,06,09,08,01,17.40
2002,06,09,08,02,17.50
2002,06,09,08,03,17.60
2002,06,09,08,04,17.60
2002,06,09,08,05,17.60
2002,06,09,08,06,17.60
2002,06,09,08,07,17.60
2002,06,09,08,08,17.60
2002,06,09,08,09,17.60
2002,06,09,08,10,17.70
2002,06,09,08,11,17.70
2002,06,09,08,12,17.70
2002,06,09,08,13,17.70
2002,06,09,08,14,17.50
2002,06,09,08,15,17.50
2002,06,09,08,16,17.40
2002,06,09,08,17,17.30
2002,06,09,08,18,17.30
2002,06,09,08,19,17.30
2002,06,09,08,20,17.20
2002,06,09,08,21,17.20
2002,06,09,08,22,17.20
2002,06,09,08,23,17.10
2002,06,09,08,24,17.10
2002,06,09,08,25,17.10
2002,06,09,08,26,17.10
2002,06,09,08,27,17.00
2002,06,09,08,28,17.00
2002,06,09,08,29,17.00
2002,06,09,08,30,17.00
2002,06,09,08,31,17.10
2002,06,09,08,32,17.10
2002,06,09,08,33,17.00
2002,06,09,08,34,17.00
2002,06,09,08,35,17.00
2002,06,09,08,36,16.90
2002,06,09,08,37,16.80
2002,06,09,08,38,16.80
2002,06,09,08,39,16.70
2002,06,09,08,40,16.70
2002,06,09,08,41,16.70
2002,06,09,08,42,16.70
2002,06,09,08,43,16.80
2002,06,09,08,44,16.90
2002,06,09,08,45,16.90
2002,06,09,08,46,16.90
2002,06,09,08,47,17.00
2002,06,09,08,48,16.90
2002,06,09,08,49,16.80
2002,06,09,08,50,16.70
2002,06,09,08,51,16.70
2002,06,09,08,52,16.70
2002,06,09,08,53,16.70
2002,06,09,08,54,16.70
2002,06,09,08,55,16.70
2002,06,09,08,56,16.60
2002,06,09,08,57,16.50
2002,06,09,08,58,16.60
2002,06,09,08,59,16.60
2002,06,09,09,00,16.60
2002,06,09,09,01,16.70
2002,06,09,09,02,16.60
2002,06,09,09,03,16.60
2002,06,09,09,04,16.60
2002,06,09,09,05,16.60
2002,06,09,09,06,16.70
2002,06,09,09,07,16.70
2002,06,09,09,08,16.70
2002,06,09,09,09,16.80
2002,06,09,09,10,16.80
2002,06,09,09,11,16.80
2002,06,09,09,12,16.90
2002,06,09,09,13,16.90
2002,06,09,09,14,16.90
2002,06,09,09,15,16.90
2002,06,09,09,16,16.90
2002,06,09,09,17,16.90
2002,06,09,09,18,17.00
2002,06,09,09,19,17.00
2002,06,09,09,20,17.10
2002,06,09,09,21,17.10
2002,06,09,09,22,17.10
2002,06,09,09,23,17.20
2002,06,09,09,24,17.20
2002,06,09,09,25,17.30
2002,06,09,09,26,17.30
2002,06,09,09,27,17.30
2002,06,09,09,28,17.30
2002,06,09,09,29,17.30
2002,06,09,09,30,17.30
2002,06,09,09,31,17.30
2002,06,09,09,32,17.30
2002,06,09,09,33,17.30
2002,06,09,09,34,17.30
2002,06,09,09,35,17.40
2002,06,09,09,36,17.40
2002,06,09,09,37,17.40
2002,06,09,09,38,17.50
2002,06,09,09,39,17.50
2002,06,09,09,40,17.60
2002,06,09,09,41,17.80
2002,06,09,09,42,17.90
2002,06,09,09,43,18.00
2002,06,09,09,44,17.90
2002,06,09,09,45,17.90
2002,06,09,09,46,17.90
2002,06,09,09,47,18.00
2002,06,09,09,48,18.10
2002,06,09,09,49,18.10
2002,06,09,09,50,18.10
2002,06,09,09,51,18.10
2002,06,09,09,52,18.20
2002,06,09,09,53,18.30
2002,06,09,09,54,18.40
2002,06,09,09,55,18.50
2002,06,09,09,56,18.50
2002,06,09,09,57,18.50
2002,06,09,09,58,18.50
2002,06,09,09,59,18.50
2002,06,09,10,00,18.40
2002,06,09,10,01,18.10
2002,06,09,10,02,17.90
2002,06,09,10,03,17.90
2002,06,09,10,04,17.90
2002,06,09,10,05,17.90
2002,06,09,10,06,17.90
2002,06,09,10,07,17.90
2002,06,09,10,08,17.90
2002,06,09,10,09,18.00
2002,06,09,10,10,18.20
2002,06,09,10,11,18.20
2002,06,09,10,12,18.10
2002,06,09,10,13,17.80
2002,06,09,10,14,17.60
2002,06,09,10,15,17.50
2002,06,09,10,16,17.50
2002,06,09,10,17,17.40
2002,06,09,10,18,17.40
2002,06,09,10,19,17.30
2002,06,09,10,20,17.10
2002,06,09,10,21,16.80
2002,06,09,10,22,16.60
2002,06,09,10,23,16.40
2002,06,09,10,24,16.50
2002,06,09,10,25,16.70
2002,06,09,10,26,16.70
2002,06,09,10,27,16.70
2002,06,09,10,28,16.60
2002,06,09,10,29,16.40
2002,06,09,10,30,16.40
2002,06,09,10,31,16.30
2002,06,09,10,32,16.20
2002,06,09,10,33,16.20
2002,06,09,10,34,16.20
2002,06,09,10,35,16.10
2002,06,09,10,36,16.20
2002,06,09,10,37,16.30
2002,06,09,10,38,16.40
2002,06,09,10,39,16.50
2002,06,09,10,40,16.70
2002,06,09,10,41,16.70
2002,06,09,10,42,17.00
2002,06,09,10,43,17.10
2002,06,09,10,44,17.00
2002,06,09,10,45,16.90
2002,06,09,10,46,16.80
2002,06,09,10,47,16.60
2002,06,09,10,48,16.50
2002,06,09,10,49,16.40
2002,06,09,10,50,16.50
2002,06,09,10,51,16.60
2002,06,09,10,52,16.70
2002,06,09,10,53,16.80
2002,06,09,10,54,16.80
2002,06,09,10,55,16.80
2002,06,09,10,56,16.70
2002,06,09,10,57,16.60
2002,06,09,10,58,16.50
2002,06,09,10,59,16.50
2002,06,09,11,00,16.50
2002,06,09,11,01,16.50
2002,06,09,11,02,16.50
2002,06,09,11,03,16.60
2002,06,09,11,04,16.70
2002,06,09,11,05,16.80
2002,06,09,11,06,16.70
2002,06,09,11,07,16.90
2002,06,09,11,08,17.00
2002,06,09,11,09,17.10
2002,06,09,11,10,17.20
2002,06,09,11,11,17.30
2002,06,09,11,12,17.40
2002,06,09,11,13,17.30
2002,06,09,11,14,17.40
2002,06,09,11,15,17.50
2002,06,09,11,16,17.50
2002,06,09,11,17,17.50
2002,06,09,11,18,17.60
2002,06,09,11,19,17.70
2002,06,09,11,20,17.80
2002,06,09,11,21,17.80
2002,06,09,11,22,17.80
2002,06,09,11,23,17.70
2002,06,09,11,24,17.80
2002,06,09,11,25,18.00
2002,06,09,11,26,18.20
2002,06,09,11,27,18.50
2002,06,09,11,28,18.70
2002,06,09,11,29,18.80
2002,06,09,11,30,19.00
2002,06,09,11,31,19.20
2002,06,09,11,32,19.40
2002,06,09,11,33,19.60
2002,06,09,11,34,19.80
2002,06,09,11,35,19.90
2002,06,09,11,36,20.00
2002,06,09,11,37,20.00
2002,06,09,11,38,20.00
2002,06,09,11,39,20.10
2002,06,09,11,40,20.20
2002,06,09,11,41,20.50
2002,06,09,11,42,20.50
2002,06,09,11,43,20.60
2002,06,09,11,44,20.70
2002,06,09,11,45,20.70
2002,06,09,11,46,20.70
2002,06,09,11,47,20.80
2002,06,09,11,48,20.80
2002,06,09,11,49,20.50
2002,06,09,11,50,20.40
2002,06,09,11,51,20.20
2002,06,09,11,52,20.00
2002,06,09,11,53,19.90
2002,06,09,11,54,19.60
2002,06,09,11,55,19.40
2002,06,09,11,56,19.30
2002,06,09,11,57,19.20
2002,06,09,11,58,19.20
2002,06,09,11,59,19.10
2002,06,09,12,00,19.00
2002,06,09,12,01,18.90
2002,06,09,12,02,19.00
2002,06,09,12,03,18.90
2002,06,09,12,04,18.90
2002,06,09,12,05,19.00
2002,06,09,12,06,19.20
2002,06,09,12,07,19.50
2002,06,09,12,08,19.60
2002,06,09,12,09,19.80
2002,06,09,12,10,19.90
2002,06,09,12,11,20.00
2002,06,09,12,12,20.10
2002,06,09,12,13,20.20
2002,06,09,12,14,20.20
2002,06,09,12,15,20.20
2002,06,09,12,16,20.20
2002,06,09,12,17,20.10
2002,06,09,12,18,19.90
2002,06,09,12,19,19.90
2002,06,09,12,20,20.00
2002,06,09,12,21,20.10
2002,06,09,12,22,20.20
2002,06,09,12,23,20.00
2002,06,09,12,24,19.70
2002,06,09,12,25,19.50
2002,06,09,12,26,19.40
2002,06,09,12,27,19.10
2002,06,09,12,28,19.00
2002,06,09,12,29,18.80
2002,06,09,12,30,18.60
2002,06,09,12,31,18.50
2002,06,09,12,32,18.30
2002,06,09,12,33,18.20
2002,06,09,12,34,18.10
2002,06,09,12,35,18.10
2002,06,09,12,36,18.10
2002,06,09,12,37,17.90
2002,06,09,12,38,17.60
2002,06,09,12,39,17.50
2002,06,09,12,40,17.50
2002,06,09,12,41,17.60
2002,06,09,12,42,17.60
2002,06,09,12,43,17.50
2002,06,09,12,44,17.40
2002,06,09,12,45,17.40
2002,06,09,12,46,17.50
2002,06,09,12,47,17.60
2002,06,09,12,48,17.70
2002,06,09,12,49,17.80
2002,06,09,12,50,17.90
2002,06,09,12,51,18.20
2002,06,09,12,52,18.30
2002,06,09,12,53,18.50
2002,06,09,12,54,18.50
2002,06,09,12,55,18.50
2002,06,09,12,56,18.50
2002,06,09,12,57,18.20
2002,06,09,12,58,18.20
2002,06,09,12,59,18.20
2002,06,09,13,00,18.40
2002,06,09,13,01,18.60
2002,06,09,13,02,18.40
2002,06,09,13,03,18.30
2002,06,09,13,04,18.20
2002,06,09,13,05,18.10
2002,06,09,13,06,18.20
2002,06,09,13,07,18.10
2002,06,09,13,08,18.10
2002,06,09,13,09,18.20
2002,06,09,13,10,18.40
2002,06,09,13,11,18.50
2002,06,09,13,12,18.50
2002,06,09,13,13,18.50
2002,06,09,13,14,18.60
2002,06,09,13,15,18.70
2002,06,09,13,16,18.80
2002,06,09,13,17,18.80
2002,06,09,13,18,18.80
2002,06,09,13,19,18.90
2002,06,09,13,20,18.90
2002,06,09,13,21,18.90
2002,06,09,13,22,18.80
2002,06,09,13,23,18.80
2002,06,09,13,24,18.90
2002,06,09,13,25,18.90
2002,06,09,13,26,18.90
2002,06,09,13,27,18.90
2002,06,09,13,28,18.90
2002,06,09,13,29,18.80
2002,06,09,13,30,18.70
2002,06,09,13,31,18.60
2002,06,09,13,32,18.60
2002,06,09,13,33,18.70
2002,06,09,13,34,18.60
2002,06,09,13,35,18.60
2002,06,09,13,36,18.50
2002,06,09,13,37,18.50
2002,06,09,13,38,18.60
2002,06,09,13,39,18.90
2002,06,09,13,40,18.90
2002,06,09,13,41,18.90
2002,06,09,13,42,19.00
2002,06,09,13,43,19.10
2002,06,09,13,44,19.20
2002,06,09,13,45,19.20
2002,06,09,13,46,19.20
2002,06,09,13,47,19.20
2002,06,09,13,48,19.30
2002,06,09,13,49,19.40
2002,06,09,13,50,19.40
2002,06,09,13,51,19.50
2002,06,09,13,52,19.50
2002,06,09,13,53,19.80
2002,06,09,13,54,19.80
2002,06,09,13,55,20.00
2002,06,09,13,56,20.10
2002,06,09,13,57,20.20
2002,06,09,13,58,20.20
2002,06,09,13,59,20.10
2002,06,09,14,00,20.10
2002,06,09,14,01,20.20
2002,06,09,14,02,20.20
2002,06,09,14,03,20.50
2002,06,09,14,04,20.80
2002,06,09,14,05,20.80
2002,06,09,14,06,20.60
2002,06,09,14,07,20.50
2002,06,09,14,08,20.40
2002,06,09,14,09,20.40
2002,06,09,14,10,20.30
2002,06,09,14,11,20.40
2002,06,09,14,12,20.70
2002,06,09,14,13,20.80
2002,06,09,14,14,20.80
2002,06,09,14,15,20.90
2002,06,09,14,16,20.90
2002,06,09,14,17,20.80
2002,06,09,14,18,20.70
2002,06,09,14,19,20.60
2002,06,09,14,20,20.60
2002,06,09,14,21,20.50
2002,06,09,14,22,20.50
2002,06,09,14,23,20.60
2002,06,09,14,24,20.40
2002,06,09,14,25,20.20
2002,06,09,14,26,20.20
2002,06,09,14,27,20.10
2002,06,09,14,28,20.00
2002,06,09,14,29,19.90
2002,06,09,14,30,20.00
2002,06,09,14,31,20.00
2002,06,09,14,32,20.10
2002,06,09,14,33,20.20
2002,06,09,14,34,20.20
2002,06,09,14,35,20.40
2002,06,09,14,36,20.40
2002,06,09,14,37,20.40
2002,06,09,14,38,20.40
2002,06,09,14,39,20.30
2002,06,09,14,40,20.30
2002,06,09,14,41,20.30
2002,06,09,14,42,20.40
2002,06,09,14,43,20.50
2002,06,09,14,44,20.60
2002,06,09,14,45,20.70
2002,06,09,14,46,20.80
2002,06,09,14,47,20.70
2002,06,09,14,48,20.80
2002,06,09,14,49,20.70
2002,06,09,14,50,20.50
2002,06,09,14,51,20.50
2002,06,09,14,52,20.50
2002,06,09,14,53,20.60
2002,06,09,14,54,20.80
2002,06,09,14,55,21.20
2002,06,09,14,56,21.40
2002,06,09,14,57,21.80
2002,06,09,14,58,21.90
2002,06,09,14,59,22.00
2002,06,09,15,00,22.00
2002,06,09,15,01,22.20
2002,06,09,15,02,22.60
2002,06,09,15,03,23.00
2002,06,09,15,04,23.20
2002,06,09,15,05,23.30
2002,06,09,15,06,23.40
2002,06,09,15,07,23.40
2002,06,09,15,08,23.40
2002,06,09,15,09,23.20
2002,06,09,15,10,23.30
2002,06,09,15,11,23.30
2002,06,09,15,12,23.40
2002,06,09,15,13,23.30
2002,06,09,15,14,23.20
2002,06,09,15,15,23.00
2002,06,09,15,16,23.10
2002,06,09,15,17,23.20
2002,06,09,15,18,23.40
2002,06,09,15,19,23.50
2002,06,09,15,20,23.50
2002,06,09,15,21,23.60
2002,06,09,15,22,23.60
2002,06,09,15,23,23.70
2002,06,09,15,24,23.70
2002,06,09,15,25,23.60
2002,06,09,15,26,23.50
2002,06,09,15,27,23.40
2002,06,09,15,28,23.40
2002,06,09,15,29,23.50
2002,06,09,15,30,23.50
2002,06,09,15,31,23.40
2002,06,09,15,32,23.30
2002,06,09,15,33,23.20
2002,06,09,15,34,23.00
2002,06,09,15,35,22.60
2002,06,09,15,36,22.30
2002,06,09,15,37,22.20
2002,06,09,15,38,22.30
2002,06,09,15,39,22.40
2002,06,09,15,40,22.50
2002,06,09,15,41,22.50
2002,06,09,15,42,22.60
2002,06,09,15,43,22.40
2002,06,09,15,44,22.50
2002,06,09,15,45,22.50
2002,06,09,15,46,22.30
2002,06,09,15,47,22.30
2002,06,09,15,48,22.30
2002,06,09,15,49,22.40
2002,06,09,15,50,22.30
2002,06,09,15,51,22.40
2002,06,09,15,52,22.40
2002,06,09,15,53,22.40
2002,06,09,15,54,22.40
2002,06,09,15,55,22.30
2002,06,09,15,56,22.30
2002,06,09,15,57,22.10
2002,06,09,15,58,22.00
2002,06,09,15,59,21.90
2002,06,09,16,00,21.80
2002,06,09,16,01,21.70
2002,06,09,16,02,21.90
2002,06,09,16,03,22.00
2002,06,09,16,04,22.00
2002,06,09,16,05,21.90
2002,06,09,16,06,21.80
2002,06,09,16,07,22.00
2002,06,09,16,08,21.90
2002,06,09,16,09,21.90
2002,06,09,16,10,22.00
2002,06,09,16,11,22.00
2002,06,09,16,12,22.00
2002,06,09,16,13,22.00
2002,06,09,16,14,22.10
2002,06,09,16,15,22.10
2002,06,09,16,16,22.10
2002,06,09,16,17,22.00
2002,06,09,16,18,22.10
2002,06,09,16,19,22.20
2002,06,09,16,20,22.30
2002,06,09,16,21,22.40
2002,06,09,16,22,22.40
2002,06,09,16,23,22.30
2002,06,09,16,24,22.40
2002,06,09,16,25,22.30
2002,06,09,16,26,22.30
2002,06,09,16,27,22.40
2002,06,09,16,28,22.20
2002,06,09,16,29,22.20
2002,06,09,16,30,22.30
2002,06,09,16,31,22.30
2002,06,09,16,32,22.30
2002,06,09,16,33,22.50
2002,06,09,16,34,22.50
2002,06,09,16,35,22.70
2002,06,09,16,36,22.80
2002,06,09,16,37,22.90
2002,06,09,16,38,22.80
2002,06,09,16,39,22.80
2002,06,09,16,40,22.90
2002,06,09,16,41,22.90
2002,06,09,16,42,22.90
2002,06,09,16,43,22.90
2002,06,09,16,44,23.00
2002,06,09,16,45,23.10
2002,06,09,16,46,23.30
2002,06,09,16,47,23.30
2002,06,09,16,48,23.50
2002,06,09,16,49,23.80
2002,06,09,16,50,24.00
2002,06,09,16,51,24.10
2002,06,09,16,52,24.30
2002,06,09,16,53,24.40
2002,06,09,16,54,24.60
2002,06,09,16,55,24.80
2002,06,09,16,56,24.90
2002,06,09,16,57,24.90
2002,06,09,16,58,25.00
2002,06,09,16,59,25.20
2002,06,09,17,00,25.30
2002,06,09,17,01,25.40
2002,06,09,17,02,25.60
2002,06,09,17,03,25.80
2002,06,09,17,04,25.90
2002,06,09,17,05,26.00
2002,06,09,17,06,26.00
2002,06,09,17,07,26.10
2002,06,09,17,08,25.90
2002,06,09,17,09,25.80
2002,06,09,17,10,25.60
2002,06,09,17,11,25.50
2002,06,09,17,12,25.30
2002,06,09,17,13,25.20
2002,06,09,17,14,25.20
2002,06,09,17,15,25.20
2002,06,09,17,16,25.20
2002,06,09,17,17,25.00
2002,06,09,17,18,24.80
2002,06,09,17,19,24.80